sat.trackr.live / text

‹ back to catalog

STARLINK-5373

NORAD 55490 · 2023-015AT

PAYLOAD ACTIVE UNKNOWN

§ Identity

Operator
Country
US
Launch date
2023-02-02
Launch site
AFETR
Launch vehicle
Mass (kg)
RCS (m²)

Purposes: comms

External: N2YO · Heavens-Above · Gunter

§ Orbital elements

Epoch: 2026-09-20T10:41:49.636896Z

Period
94.27 min
Inclination
43.0026°
Eccentricity
0.0001227
Mean motion
15.27569599 rev/d
Perigee alt
482.2 km
Apogee alt
483.9 km
Semi-major
6,861.2 km
B*
7.8933e-5
RAAN
319.5927°
Arg perigee
262.0029°
Mean anomaly
98.0683°
Rev number
20,038

§ Raw data

STARLINK-53731 55490U 23015AT  26263.44571339  .00001910  00000+0  78933-4 0  99932 55490  43.0026 319.5927 0001227 262.0029  98.0683 15.27569599200384

JSON: /api/v1/satellites/55490 · /tle

For live sub-satellite position, see the globe view (requires WebGL).

§ Visibility from observer

Set your observer location to see the next 7 days of passes ≥ 10°. The values pass through the URL so the page stays shareable.

No JS? Fill the form by hand. The geolocation button needs JavaScript.